OBJECT B

Satellite information

Favourite Embed

Satellite Type and Status

UNKNOWNIN ORBIT

Key statistics

Satellite OBJECT B at a glance.

Uptime

471

Days in orbit

Revolutions

≈ 15.3

Per day

Orbit

SSO

Sun Synchronous Orbit

Inclination

97.7

Latest

Satellite identification and parameters

Extended collection of information and parameters for OBJECT B.

Object identification

Identified? True

Debris? False

Object name: OBJECT B

International designator: 2024-153B

Object number (NORAD): 60746

Object ID (CCSDS): 60746

Country: PEOPLES REPUBLIC OF CHINA (PRC)

Current information (Y/N): Y

RCS size: MEDIUM

Orbital parameters

Period: 94.292 minutes

Inclination: 97.6559 deg

SMA: 6862.424 km

Apoapsis: 492.559 km

Periapsis: 476.019 km

RAAN: 114.7532 deg

Eccentricy: 0.00120517

Argument of periapsis: 98.8501 deg

Mean anomaly: 261.4102 deg

Mean motion: 15.2716669 rev/day

Mean motion (dot): 0.00022169 rev/day2

B* drag term: 0.00083190267 1/REarth

Two-line elements (TLE)

Creation date: Dec. 12, 2025, 10:14 a.m.

Reference frame: TEME

Reference center: EARTH

Epoch: Dec. 12, 2025, 7:50 a.m. UTC

TLE line 0: 0 OBJECT B

TLE line 1: 1 60746U 24153B 25346.32658703 .00022169 00000-0 83190-3 0 9996

TLE line 2: 2 60746 97.6559 114.7532 0012052 98.8501 261.4102 15.27166690 71377

Live tracking on map

Real-time ground track for satellite OBJECT B.

In-orbit conjunctions

There are no conjunctions computed for OBJECT B, at the moment. Check back to stay up to date, as we update our databases every day.

Go to all conjunctions

Associated space launch

Carried 6 satellites to sun synchronous orbit: * Yunyao-1 15 to 17 * Jitianxing A-03 * Suxing 1-01 * Tianfu Gaofen 2

OBJECT B was lifted into orbit during the mission ‘Ceres-1S | 6 satellites’, on board a Ceres-1S space rocket.

The launch took place on Aug. 29, 2024, 5:22 a.m. from Haiyang Spaceport.

For more information about the launch, click the button.

Launch to space Ceres-1S | 6 satellites
Ceres-1S | 6 satellites

Agency: N/A

Status: Launch Successful

Launch date: Aug. 29, 2024, 5:22 a.m. UTC

Rocket: Ceres-1S

Launch pad: Haiyang Spaceport

Location: Haiyang Oriental Spaceport

...

Latest news about this satellite

News about space launch
Polaris Dawn on hold; SpaceX booster fails on landing

Another busy week of spaceflight activities contained a landing failure of a Falcon 9 booster for the first time in over three years. Looking forward, Falcon 9 could launch up to five launches this week, including the Polaris Dawn mission, whose private c...

News about space launch
Galactic Energy launches six satellites with third sea launch

HELSINKI — China’s Galactic Energy conducted its third Ceres-1 solid rocket sea launch Thursday, successfully sending six satellites into orbit. The Ceres-1 lifted off from a transport erector launcher on […]

News about space launch
Launch Roundup: Falcon Heavy returns with GOES-U, Firefly Alpha launch attempt

Following a week in which Tropical Storm Alberto brought high seas, wind, and rain-related delays to the launch schedule in Florida, SpaceX managed to get back on track this week with launches from all three of the active Falcon launch pads, including a F...


Newsletter sign-up

Weekly statistics, charts and insights to help you stay on top of the space industry.